Location: Moscow
(38.8570°N, 84.2291°W)
Time: 09:55:46
(UTC+00:00)

UKube-1 - Pass Details

Date: 16 March 2026
Orbit: 527 x 530 km, 98.4° (Epoch: 19 April)

Event Time Altitude Azimuth Distance (km) Brightness Sun altitude
Rises 10:58:39 0° 13° (NNE) 2,673 ? -10.1°
Reaches altitude 10° 11:00:46 10° 13° (NNE) 1,778 ? -9.7°
Maximum altitude 11:04:36 90° 309° (NW) 533 ? -9.0°
Drops below altitude 10° 11:08:24 10° 194° (SSW) 1,762 ? -8.3°
Sets 11:10:29 0° 195° (SSW) 2,646 ? -7.9°
